Regional Weather Roundup
Issued by NWS

Home | Current Version | Previous Version | Graphics & Text | Print | Product List | Glossary On
Versions: 1 2 3 4 5 6 7 8 9 10 11 12 13 14 15 16 17 18 19 20 21 22 23 24 25 26 27 28 29 30 31 32 33 34 35 36 37 38 39 40 41 42 43 44 45 46 47 48 49 50
000
ASUS45 KSLC 160010
RWRUT

UTAH REGIONAL WEATHER ROUNDUP
NATIONAL WEATHER SERVICE SALT LAKE CITY UT
500 PM MST SUN JAN 15 2017

UTZ001>011-023>025-160100-

NORTHERN UTAH

CITY           SKY/WX    TMP DP  RH WIND       PRES   REMARKS
BRIGHAM CITY     N/A     26  20  78 CALM      30.15R
HILL AFB       CLOUDY    25  20  81 NW6       30.11R WCI  18
LOGAN            N/A     14   9  80 N6        30.16R HAZE    WCI   5
OGDEN            N/A     24  19  81 NW6       30.12R WCI  17
SALT LAKE CITY MOCLDY    30  24  78 W6        30.13R WCI  24
TOOELE VALLEY  CLOUDY    30  27  86 CALM      30.14R
WENDOVER         N/A     32  23  69 CALM      30.13S
HEBER CITY       N/A     16   9  73 CALM      30.07S
WEST JORDAN    CLOUDY    29  28  95 CALM      30.12R

$$

UTZ011>015-024>027-160100-

CENTRAL/NORTHEAST UTAH

CITY           SKY/WX    TMP DP  RH WIND       PRES   REMARKS
PROVO AIRPORT  CLOUDY    29  24  82 W5        30.12S WCI  24
MOAB/CANYONLAN CLOUDY    39  35  86 W7        29.93S WCI  34
DELTA          CLOUDY    30  25  80 CALM      30.10S
PRICE            N/A     34  31  88 W5        29.92F WCI  30
RICHFIELD      CLOUDY    32  30  93 N9        30.08R FOG     WCI  24
ROOSEVELT      CLOUDY    32  25  74 SE3       30.03F
VERNAL         CLOUDY    29  26  89 SE3       30.01F

$$

UTZ013>016-019>022-027-160100-

SOUTHERN UTAH

CITY           SKY/WX    TMP DP  RH WIND       PRES   REMARKS
BRYCE CANYON   CLOUDY    31  25  78 NW10      29.96R WCI  22
CEDAR CITY     CLOUDY    29  25  85 N9        30.03F WCI  20
MILFORD        CLOUDY    31  25  78 N9        30.08R WCI  23
ST GEORGE        N/A     52  32  46 N5        30.02S
HANKSVILLE     CLOUDY    37  37 100 MISG      29.97S
KANAB          CLOUDY    46  36  66 W5        30.00R
BLANDING       CLOUDY    39  39 100 E6        29.97R VSB 1/4 WCI  35

$$

REGIONAL REPORTS     COLORADO/ARIZONA

CITY           SKY/WX    TMP DP  RH WIND       PRES   REMARKS
CRAIG, CO      CLOUDY    22  16  78 NW6       30.01S WCI  14
GRAND JUNCTION CLOUDY    42  32  67 NW8       29.92R
RIFLE, CO      CLOUDY    34  27  75 NW9       29.93R WCI  27
MONTROSE, CO   CLOUDY    37  34  89 NW6       29.94R WCI  32
CORTEZ, CO     FOG       38  38 100 NW9       29.88S VSB 1/2 WCI  31
COLORADO CITY    N/A     43  32  65 NW7       30.01R
PAGE, AZ       CLOUDY    46  36  68 SE5       29.93S
GRAND CANYON   CLOUDY    36  34  92 W7        29.98R WCI  30
KINGMAN, AZ      N/A     52  33  48 N7        29.98S
FLAGSTAFF, AZ  CLOUDY    37  33  85 SW5       29.96S WCI  33

$$

REGIONAL REPORTS    NEVADA/IDAHO/WYOMING

CITY           SKY/WX    TMP DP  RH WIND       PRES   REMARKS
LAS VEGAS, NV    N/A     56  28  34 S5        29.98F
ELY, NY        CLOUDY    26  23  88 N6        30.08R WCI  19
ELKO, NV       CLOUDY    25  20  81 W6        30.15S WCI  18
POCATELLO, ID  CLOUDY    14   8  77 SW7       30.19S WCI   4
BURLEY, ID       N/A     16   9  74 NW6       30.21R WCI   7
FORT BRIDGER,    N/A      6   5  95 CALM      30.05S
EVANSTON, WY   CLOUDY    13   7  77 CALM      30.03R
ROCK SPRINGS,  CLOUDY     8   3  80 W8        30.02F WCI  -4

$$



USA.gov is the U.S. government's official web portal to all federal, state and local government web resources and services.